Tracking 18957 objects as of 22-Jan-2018
HD Live streaming from Space Station
objects crossing your sky now

FENGYUN 1C DEB

Track FENGYUN 1C DEB now!
10-day predictions


NORAD ID: 36230
Int'l Code: 1999-025DVF
Perigee: 849.4 km
Apogee: 1,188.2 km
Inclination: 99.7 °
Period: 105.4 minutes
Semi major axis: 7389 km
RCS: 0.0137 m2 (small)
Launch date: May 10, 1999
Source: People's Republic of China (PRC)
Launch site: Taiyaun Space Center, China (TSC)

Note: This is SATELLITE DEBRIS
aabbcc
Your satellite tracking list
Your tracking list is empty




NASA's NSSDC Master Catalog

Two Line Element Set (TLE):
1 36230U 99025DVF 18016.93571982 +.00000543 +00000-0 +58987-3 0  9991
2 36230 099.6570 067.6710 0229239 021.0320 340.0069 13.66640099223805
Source of the keplerian elements: AFSPC